Regional Weather Roundup
Issued by NWS

Home | Current Version | Previous Version | Text Only | Print | Product List | Glossary On
Versions: 1 2 3 4 5 6 7 8 9 10 11 12 13 14 15 16 17 18 19 20 21 22 23 24 25 26 27 28 29 30 31 32 33 34 35 36 37 38 39 40 41 42 43 44 45 46 47 48 49 50
000
ASUS43 KMPX 161810
RWRMN
WEATHER ROUNDUP FOR MINNESOTA
NATIONAL WEATHER SERVICE TWIN CITIES/CHANHASSEN MN
1200 PM CST TUE JAN 16 2018


NOTE: "FAIR" INDICATES FEW OR NO CLOUDS BELOW 12,000 FEET WITH NO
SIGNIFICANT WEATHER AND/OR OBSTRUCTIONS TO VISIBILITY. N/A MEANS
CURRENT SKY AND/OR WEATHER CONDITIONS ARE NOT AVAILABLE.

MNZ060>063-068>070-161900-
   Twin Cities Metro

CITY           SKY/WX    TMP DP  RH WIND       PRES   REMARKS
TWIN CITIES    FAIR       6  -3  66 NW5       30.67F WCI  -3
6HR MIN TEMP:  -1; 6HR MAX TEMP:   6; 6HR PCP: TRACE;

ST PAUL        FAIR       4  -3  73 W5        30.69F WCI  -5
CRYSTAL        FAIR       3  -7  63 W5        30.67F WCI  -6
BLAINE         SUNNY      7  -2  66 W7        30.65F WCI  -5
LAKEVILLE      FAIR       3  -2  78 W8        30.66F WCI -10
EDEN PRAIRIE   FAIR       4  -5  66 W5        30.67F WCI  -5
6HR MIN TEMP:   0; 6HR MAX TEMP:   4;

SOUTH ST PAUL  FAIR       6  -3  66 NW5       30.67F WCI  -3
LAKE ELMO      FAIR       5   0  78 CALM      30.66F
$$
MNZ001>005-007-008-013>017-022>024-027-028-161900-
   Northwest Minnesota

CITY           SKY/WX    TMP DP  RH WIND       PRES   REMARKS
BEMIDJI        FAIR      -3  -9  77 NW3       30.59F
HALLOCK        FAIR      -2  -9  71 S17       30.59F WCI -24
ROSEAU         FAIR      -2  -9  71 SW12      30.57F WCI -20
WARROAD        FAIR      -2 -11  65 SW8       30.55F WCI -17
THIEF RVR FALL FAIR      -8 -16  67 S10       30.63F WCI -26
CROOKSTON      FAIR      -6 -15  65 S15       30.67F WCI -27
FOSSTON        FAIR      -8 -17  65 S7        30.63F WCI -22
DETROIT LAKES  FAIR      -2  -8  78 CALM      30.64F
MOORHEAD       FAIR      -8 -15  71 CALM      30.71F
PARK RAPIDS    FAIR      -2  -8  76 NW3       30.60F
MAHNOMEN       FAIR     -10 -16  77 SW7       30.64F WCI -26
$$
MNZ006-009>011-018-025>026-161900-
   North Central Minnesota

CITY           SKY/WX    TMP DP  RH WIND       PRES   REMARKS
BAUDETTE       CLOUDY    -2 -11  65 SW8       30.55F WCI -17
FLAG ISLAND    FAIR      -4 -11  71 S10       30.52F WCI -21
INTL FALLS     PTSUNNY   -3  -9  75 SW6       30.58F WCI -15
6HR MIN TEMP: -11; 6HR MAX TEMP:  -3;

WASKISH        CLOUDY    -6 -11  77 W7        30.59F WCI -20
BIG FORK       FAIR       1  -4  78 SW3       30.57F
LONGVILLE      FAIR      -2  -9  71 W3        30.61F
GRAND RAPIDS   FAIR       7   1  76 W6        30.60F WCI  -3
CRANE LAKE     FAIR       0  -2  92 SW5       30.59F WCI -10
ORR            FAIR       0  -6  78 CALM      30.53F
COOK           FAIR       0  -2  92 W5        30.56F WCI -10
WALKER         FAIR      -2  -6  81 CALM      30.60F
$$
MNZ012-019>021-037-161900-
   Northeast Minnesota

CITY           SKY/WX    TMP DP  RH WIND       PRES   REMARKS
DULUTH         FAIR       5   0  79 NW9       30.52F WCI  -9
6HR MIN TEMP:  -5; 6HR MAX TEMP:   5;

ELY            FAIR       1  -2  85 W3        30.53F
HIBBING        MIX PCPN  -1  -6  79 VRB5      30.56F WCI -11
EVELETH        FAIR       0  -7  71 W7        30.56F WCI -13
DULUTH HARBOR  FAIR       9   1  72 SW7       30.62F WCI  -3
TWO HARBORS    FAIR      18   3  53 W9        30.52F WCI   6
GRAND MARAIS     N/A     19   6  57 VRB3      30.53F
G MARAIS ARPRT FAIR      10   0  61 CALM      30.43F
$$
MNZ029>031-032-039>041-046>048-054>057-064-161900-
   West Central Minnesota

CITY           SKY/WX    TMP DP  RH WIND       PRES   REMARKS
FERGUS FALLS   FAIR      -8 -15  71 W3        30.73F
MORRIS         SUNNY     -2  -9  71 NW9       30.69F WCI -18
ALEXANDRIA     FAIR      -1  -9  68 NW6       30.64F WCI -13
ELBOW LAKE     FAIR      -7 -13  74 NW6       30.69F WCI -20
WADENA         FAIR      -2 -11  65 W5        30.63F WCI -12
GLENWOOD       FAIR       0  -8  71 W6        30.66F WCI -12
APPLETON       SUNNY     -2  -9  71 NW6       30.73F WCI -14
BENSON         SUNNY     -4 -11  71 N8        30.72F WCI -19
ORTONVILLE     SUNNY     -2 -13  60 W7        30.71F WCI -16
MADISON          N/A      0  -9  65 NW9       30.73F WCI -16
WILLMAR        FAIR      -2  -9  71 W9        30.70F WCI -18
$$
MNZ033>034-036-042>043-049>051-058-059-161900-
   Central Minnesota

CITY           SKY/WX    TMP DP  RH WIND       PRES   REMARKS
ST CLOUD       FAIR       0  -7  72 NW6       30.65F WCI -12
6HR MIN TEMP:  -9; 6HR MAX TEMP:   0;

SAUK CENTRE      N/A     -3  -9  74 W6        30.66F WCI -15
PAYNESVILLE    FAIR      -1  -6  78 NW7       30.67F WCI -14
AITKIN         FAIR       0  -6  78 NW3       30.60F
PINE RIVER     FAIR       0  -8  71 CALM      30.63F
BRAINERD       FAIR       0  -7  72 CALM      30.62F
STAPLES        FAIR      -6 -13  71 W5        30.63F WCI -17
LONG PRAIRIE   FAIR       0  -6  78 W5        30.64F WCI -10
LITTLE FALLS   FAIR       0 -13  55 W5        30.65F WCI -10
LITCHFIELD     FAIR       0  -8  71 W7        30.67F WCI -13
BUFFALO        FAIR       1  -6  74 W8        30.68F WCI -14
MAPLE LAKE     FAIR       1  -5  73 MISG      30.68F
HUTCHINSON     FAIR       0  -7  73 W6        30.68F WCI -12
$$
MNZ037-044-045-052-053-161900-
   East Central Minnesota

CITY           SKY/WX    TMP DP  RH WIND       PRES   REMARKS
PRINCETON      FAIR       3  -6  66 W6        30.64F WCI  -8
MORA           FAIR       7  -2  66 W3        30.64F
CAMBRIDGE        N/A      3  -8  60 W3        30.65F
RUSH CITY      FAIR       5  -4  68 W5        30.64F WCI  -4
MOOSE LAKE     FAIR       5  -2  72 W3        30.59F
HINCKLEY       FAIR       5   0  78 W5        30.62F WCI  -4
CLOQUET        FAIR       5  -2  72 W5        30.55F WCI  -4
MCGREGOR       FAIR       3  -4  72 NW5       30.60F WCI  -6
$$
MNZ071>073-080-081-089-090-097-098-161900-
   Southwest Minnesota

CITY           SKY/WX    TMP DP  RH WIND       PRES   REMARKS
MONTEVIDEO     SUNNY      1  -6  71 N8        30.72F WCI -12
GRANITE FALLS  SUNNY     -1  -7  74 W10       30.73F WCI -17
CANBY          SUNNY      4  -3  71 NW7       30.72F WCI  -8
MARSHALL       SUNNY     -2  -9  72 NW10      30.71F WCI -19
REDWOOD FALLS  SUNNY     -3  -9  75 W8        30.71F WCI -18
OLIVIA         SUNNY      0  -8  71 W10       30.70F WCI -17
PIPESTONE      SUNNY     -2  -6  84 NW6       30.65F WCI -14
WINDOM         MOSUNNY   -2 -17  50 W10       30.66F WCI -19
WORTHINGTON    CLOUDY     2  -6  69 NW10      30.66F WCI -14
JACKSON        SUNNY      0  -8  71 NW10      30.66F WCI -17
SLAYTON        MOSUNNY    0  -5  81 NW9       30.66F WCI -16
$$
MNZ065>067-074>077-082>085-091>093-161900-
   South Central Minnesota

CITY           SKY/WX    TMP DP  RH WIND       PRES   REMARKS
MANKATO        CLOUDY    -2  -7  79 W9        30.69F HAZE    WCI -18
NEW ULM        SUNNY     -2  -9  71 W8        30.70F WCI -17
ST JAMES       MOSUNNY    0  -8  71 NW12      30.71F WCI -18
FAIRMONT       LGT SNOW   1  -6  72 NW13      30.69F WCI -17
FARIBAULT      FAIR       3  -2  78 CALM      30.66F
OWATONNA       PTSUNNY    0  -6  78 NW9       30.65F WCI -16
WASECA         CLOUDY     1  -4  78 W9        30.68F WCI -14
ALBERT LEA     CLOUDY     1  -4  78 NW9       30.63F HAZE    WCI -14
$$
MNZ078>079-086>088-094>096-161900-
   Southeast Minnesota

CITY           SKY/WX    TMP DP  RH WIND       PRES   REMARKS
ROCHESTER      CLOUDY     5   1  83 NW14      30.60F WCI -12
6HR MIN TEMP:   0; 6HR MAX TEMP:   5; 6HR PCP: TRACE;

RED WING       FAIR       7  -2  66 W9        30.66F WCI  -7
STANTON        CLOUDY     5  -2  72 W7        30.65F WCI  -7
DODGE CENTER   CLOUDY     1  -4  78 NW13      30.61F HAZE    WCI -16
WINONA         CLOUDY    12   7  79 NW12      30.63  WCI  -2
AUSTIN         CLOUDY     0  -6  78 NW12      30.63F HAZE    WCI -18
PRESTON        CLOUDY     6   1  78 NW9       30.59F WCI  -7
$$
ABBREVIATIONS USED IN REMARKS
   TC - TEMPERATURES IN CELSIUS
  WCI - WIND CHILL INDEX
   HX - HEAT INDEX
  VSB - VISIBILITY
$$



USA.gov is the U.S. government's official web portal to all federal, state and local government web resources and services.